Location: Laas
(43.4693°N, 0.3073°E)
Time: 16:08:08
(UTC+00:00)

GENESIS II - Pass Details

Date: 25 October 2020
Orbit: 490 x 537 km, 64.5° (Epoch: 23 November)

Event Time Altitude Azimuth Distance (km) Brightness Sun altitude
Rises 17:40:10 0° 208° (SSW) 2,665 8.4 -8.1°
Reaches altitude 10° 17:42:21 10° 206° (SSW) 1,783 7.4 -8.4°
Maximum altitude 17:46:20 72° 123° (ESE) 569 4.2 -9.2°
Drops below altitude 10° 17:50:22 10° 39° (NE) 1,800 6.5 -9.9°
Enters shadow 17:51:17 - 38° (NE) 2,168 6.9 -10.0°
